Regional Weather Roundup
Issued by NWS

Home | Current Version | Previous Version | Text Only | Print | Product List | Glossary Off
Versions: 1 2 3 4 5 6 7 8 9 10 11 12 13 14 15 16 17 18 19 20 21 22 23 24 25 26 27 28 29 30 31 32 33 34 35 36 37 38 39 40 41 42 43 44 45 46 47 48 49 50

000
ASUS43 KMKX 301011
RWRWI

WISCONSIN REGIONAL WEATHER ROUNDUP
NATIONAL WEATHER SERVICE MILWAUKEE/SULLIVAN WI
500 AM CDT MON MAY 30 2016

NOTE: "FAIR" INDICATES FEW OR NO CLOUDS BELOW 12,000 FEET WITH NO
SIGNIFICANT WEATHER AND/OR OBSTRUCTIONS TO VISIBILITY.

WIZ001-002-006>008-014>016-023>028-301100-
NORTHWEST WISCONSIN

CITY           SKY/WX    TMP DP  RH WIND       PRES   REMARKS
SUPERIOR ARPT  CLEAR     48  48  99 SW5       29.95S
ASHLAND        CLEAR     51  49  92 SW6       29.96R
HAYWARD        MOCLDY    47  45  93 CALM      29.99R
SIREN          CLEAR     47  45  93 CALM      29.99R
CUMBERLAND     FOG       50  48  93 CALM      29.99S VSB 1/2
RICE LAKE      PTCLDY    53  52  95 CALM      30.01S
CHETEK         FOG       50  50 100 CALM      29.99F VSB 1/4
LADYSMITH      CLEAR     50  49  96 CALM      30.00S FOG
EAU CLAIRE     CLEAR     54  53  97 CALM      29.98S
MENOMONIE      CLEAR     54  51  90 CALM      30.00S
NEW RICHMOND   PTCLDY    55  55 100 S3        30.00R FOG
OSCEOLA        FOG       51  51 100 CALM      30.03R VSB 1/2
$$

WIZ003>005-009-010-017-018-301100-
NORTH CENTRAL WISCONSIN

CITY           SKY/WX    TMP DP  RH WIND       PRES   REMARKS
MANITOWISH WTR NOT AVBL
ARBOR VITAE    CLEAR     52  51  96 CALM      29.98S
WOODRUFF       CLEAR     52  51  96 CALM      29.98S
RHINELANDER    CLEAR     49  48  97 W5        29.98S FOG
EAGLE RIVER      N/A     49  49 100 W6        29.96S FOG
LAND O LAKES   CLEAR     51  51 100 W3        29.97R
PHILLIPS       CLEAR     50  49  97 CALM      29.98S
TOMAHAWK       FOG       49  48  97 CALM      29.99S VSB 3/4
MEDFORD        CLEAR     53  53 100 W5        30.00R
MERRILL          N/A     47  47 100 CALM      29.99S FOG
$$

WIZ029-030-035-036-043>047-301100-
CENTRAL WISCONSIN

CITY           SKY/WX    TMP DP  RH WIND       PRES   REMARKS
WAUSAU         CLOUDY    57  55  93 CALM      29.97R
MOSINEE        PTCLDY    55  55 100 W5        30.00R
MARSHFIELD     CLEAR     58  55  90 W7        29.99R
STEVENS POINT  FOG       51  51 100 CALM      30.00R VSB 3/4
WAUPACA        CLEAR     57  57  99 CALM      29.98S
WAUTOMA        PTCLDY   N/A N/A N/A CALM      29.99R
WISC RAPIDS    CLEAR     56  54  93 CALM      30.00R
CAMP DOUGLAS   CLEAR     52  52 100 CALM      29.99S FOG
$$

WIZ011>013-019>022-031-037>040-048>050-301100-
NORTHEAST WISCONSIN

CITY           SKY/WX    TMP DP  RH WIND       PRES   REMARKS
ANTIGO         FOG       48  48 100 CALM      29.99R VSB 3/4
SHAWANO        CLEAR     58  55  90 W3        29.97S
OCONTO         CLEAR    N/A N/A N/A CALM      29.94S
STURGEON BAY   NOT AVBL
GREEN BAY      CLEAR     58  56  93 W5        29.96S
MANITOWOC      CLEAR     62  58  86 W6        29.97R
APPLETON       PTCLDY    57  55  94 W9        29.96S
CLINTONVILLE   CLEAR     55  54  94 CALM      29.97S
OSHKOSH        CLEAR     61  57  87 W6        29.98R
$$

WIZ032>034-041-042-053>061-301100-
SOUTHWEST WISCONSIN

CITY           SKY/WX    TMP DP  RH WIND       PRES   REMARKS
LA CROSSE      CLEAR     58  57  97 S3        30.00R
SPARTA         CLEAR     51  51 100 CALM      30.02R
VIROQUA        CLEAR     59  57  93 NW3       30.02R
BOSCOBEL       FOG       58  57  97 S3        30.01S VSB 1/4
PRAIRIE DU CHI CLEAR     57  55  92 CALM      30.01S
PLATTEVILLE    CLEAR     62  59  89 CALM      30.01S
$$

WIZ056-057-062-063-064-067-068-301100-
SOUTH CENTRAL WISCONSIN

CITY           SKY/WX    TMP DP  RH WIND       PRES   REMARKS
REEDSBURG      CLEAR     56  56 100 CALM      30.00R
BARABOO/DELLS  CLEAR     57  55  91 CALM      30.00R
LONE ROCK      FOG       57  56  96 CALM      30.01R VSB 1/4
MINERAL POINT  CLEAR     63  59  88 SW3       30.02R
MADISON        FOG       57  57 100 CALM      30.00R VSB 1/4
MIDDLETON      CLEAR     58  58 100 CALM      30.01R
WATERTOWN      CLEAR     55  55 100 CALM      30.00R
MONROE         MOCLDY    61  55  82 SW6       30.01R
JANESVILLE     CLEAR     59  57  94 CALM      30.00S
$$

WIZ051-052-058>065-066-070>072-301100-
SOUTHEAST WISCONSIN

CITY           SKY/WX    TMP DP  RH WIND       PRES   REMARKS
MILWAUKEE      CLEAR     65  57  75 W3        29.99R
WAUKESHA       CLEAR     57  55  94 SW3       30.01R
MILWAUKEE/TIMM CLEAR     61  54  77 CALM      30.00R
RACINE         CLEAR     63  57  81 W3        30.01R
BURLINGTON     CLEAR     57  56  97 CALM      30.00S
KENOSHA        CLEAR     59  56  89 SW6       30.00R
FOND DU LAC    CLEAR     57  56  96 S3        29.99R
SHEBOYGAN      CLEAR     56  54  93 SW3       29.97S
WEST BEND      FOG       55  55 100 CALM      29.99R VSB 3/4
JUNEAU         CLEAR     56  56  98 CALM      30.01R FOG
$$

LSZ147-162-301100-
LAKE SUPERIOR

STATION/POSITION TIME  TEMP    WIND        PRES    WAVE
                       AIR SEA DIR/SP/G            HT/PER
                 (UTC) (F)     (DEG/KT/KT) (MB)    (FT/S)
W MID LAKE BUOY  0950   43 38  250/ 10/ 12 1012.6S   1
DEVILS ISLAND    1000   49     230/ 14/ 16 1013.6R
PORT WING        0808   59     230/  8/ 12 1013.9R
SAXON HARBOR     0940   56     200/  8/ 11 1013.2S
$$

LMZ867-665-643>646-301100-
LAKE MICHIGAN

STATION/POSITION TIME  TEMP    WIND        PRES    WAVE
                       AIR SEA DIR/SP/G            HT/PER
                 (UTC) (F)     (DEG/KT/KT) (MB)    (FT/S)
CHAMBERS ISLAND  0900   60     220/  5/  9 1013.9R
N MID LAKE BUOY  0950   52 47  240/  6/  6 1013.5R   1/ 4
NORTHPORT PIER   0900   60     250/  4/  7 1013.5R
KEWAUNEE LAKESHO 0900   60     300/  4/  4 1013.7R
SHEBOYGAN LAKESH 1000   62     260/  7/  8 1014.8R
PORT WASHINGTON  0940   64     300/  6/  8 1015.6S
S MID LAKE BUOY  0950   58 51  240/  8/  8 1015.2R   0
KENOSHA   LAKESH 1000   65     260/  8/ 10 1015.6R
$$

TC  - TEMPERATURE IN CELSIUS
VSB - VISIBILITY IN STATUTE MILES
WCI - WIND CHILL INDEX
HX  - HEAT INDEX





USA.gov is the U.S. government's official web portal to all federal, state and local government web resources and services.